DW7281 Weather Reports


Display with metric or nautical units.
time (UTC)temp
F
wind
direction
speed
MPH
gust
MPH
rain 1hr
in
rain 24hr
in
rain mn
in
humidity
%
barometer
mb
20260902230059 66 215 9.0 18.0 0.00 0.00 0.00 60 1025.6
20260902224602 65 226 7.0 18.0 0.00 0.00 0.00 63 1025.7
20260902223058 64 213 9.0 21.0 0.00 0.00 0.00 64 1025.7
20260902221618 63 360 7.0 16.0 0.00 0.00 0.00 64 1025.5
20260902220059 62 216 4.0 13.0 0.00 0.00 0.00 65 1025.3
20260902214558 61 270 5.0 11.0 0.00 0.00 0.00 66 1025.4
20260902213055 60 247 4.0 13.0 0.00 0.00 0.00 66 1025.2
20260902211553 59 0 3.0 10.0 0.00 0.00 0.00 68 1025.0
20260902210058 58 227 3.0 10.0 0.00 0.00 0.00 69 1024.8
20260902204557 56 254 0.0 5.0 0.00 0.00 0.00 70 1024.6
20260902203107 55 219 3.0 9.0 0.00 0.00 0.00 71 1024.5
20260902201558 55 206 3.0 7.0 0.00 0.00 0.00 71 1024.4
20260902200056 55 218 3.0 8.0 0.00 0.00 0.00 71 1024.4
20260902194555 55 0 1.0 8.0 0.00 0.00 0.00 70 1024.2
20260902193101 55 219 3.0 9.0 0.00 0.00 0.00 70 1024.0
20260902191619 55 215 3.0 8.0 0.00 0.00 0.00 70 1023.7
20260902190100 55 0 2.0 7.0 0.00 0.00 0.00 71 1023.5
20260902184625 54 223 3.0 8.0 0.00 0.00 0.00 72 1023.5
20260902183124 54 0 0.0 0.0 0.00 0.00 0.00 73 1023.4
20260902181605 54 0 0.0 0.0 0.00 0.00 0.00 73 1023.3
20260902180054 54 0 0.0 0.0 0.00 0.00 0.00 73 1023.4
20260902174600 53 0 0.0 0.0 0.00 0.00 0.00 73 1023.5
20260902173112 54 0 0.0 0.0 0.00 0.00 0.00 72 1023.5
20260902171608 54 0 0.0 0.0 0.00 0.00 0.00 72 1023.6
20260902170058 54 0 0.0 0.0 0.00 0.00 0.00 70 1023.7
20260902164602 55 0 0.0 0.0 0.00 0.00 0.00 69 1023.6
20260902163059 55 0 0.0 0.0 0.00 0.00 0.00 68 1023.5
20260902161601 56 0 0.0 0.0 0.00 0.00 0.00 67 1023.6
20260902160105 56 0 0.0 0.0 0.00 0.00 0.00 67 1023.6
20260902154554 57 0 0.0 0.0 0.00 0.00 0.00 66 1023.8
20260902153100 57 0 0.0 0.0 0.00 0.00 0.00 66 1024.1
20260902151547 57 0 0.0 0.0 0.00 0.00 0.00 65 1024.2
20260902150055 57 0 0.0 0.0 0.00 0.00 0.00 65 1024.4
20260902144551 57 0 0.0 0.0 0.00 0.00 0.00 65 1024.5
20260902143047 57 0 0.0 0.0 0.00 0.00 0.00 65 1024.6
20260902141554 57 0 0.0 0.0 0.00 0.00 0.00 66 1024.7
20260902140054 56 0 0.0 0.0 0.00 0.00 0.00 67 1024.8
20260902134555 56 0 0.0 0.0 0.00 0.00 0.00 67 1024.5
20260902133057 56 0 0.0 0.0 0.00 0.00 0.00 67 1024.5
20260902131556 57 0 0.0 0.0 0.00 0.00 0.00 66 1024.6
20260902130052 57 0 0.0 0.0 0.00 0.00 0.00 66 1024.7
20260902124554 57 0 0.0 0.0 0.00 0.00 0.00 66 1024.9
20260902123120 58 0 0.0 0.0 0.00 0.00 0.00 65 1024.7
20260902121559 58 0 0.0 0.0 0.00 0.00 0.00 64 1024.7
20260902120054 58 0 0.0 0.0 0.00 0.00 0.00 64 1024.7
20260902114606 58 0 0.0 0.0 0.00 0.00 0.00 64 1024.9
20260902113105 58 0 0.0 0.0 0.00 0.00 0.00 64 1024.8
20260902111600 59 0 0.0 0.0 0.00 0.00 0.00 64 1024.9
20260902104603 59 0 0.0 0.0 0.00 0.00 0.00 63 1024.9
20260902103052 59 0 0.0 0.0 0.00 0.00 0.00 63 1024.7
20260902101555 59 0 0.0 0.0 0.00 0.00 0.00 63 1024.7
20260902100056 60 0 0.0 0.0 0.00 0.00 0.00 62 1024.6
20260902094600 61 0 0.0 0.0 0.00 0.00 0.00 61 1024.5
20260902093103 62 0 0.0 0.0 0.00 0.00 0.00 59 1024.3
20260902091555 62 0 0.0 0.0 0.00 0.00 0.00 58 1024.3
20260902090051 63 0 0.0 0.0 0.00 0.00 0.00 58 1024.2
20260902084550 64 0 0.0 0.0 0.00 0.00 0.00 56 1024.1
20260902083053 65 0 0.0 0.0 0.00 0.00 0.00 55 1023.8
20260902081554 66 0 0.0 0.0 0.00 0.00 0.00 54 1023.8
20260902080052 67 0 0.0 0.0 0.00 0.00 0.00 53 1023.8
20260902074602 67 0 0.0 0.0 0.00 0.00 0.00 52 1023.6
20260902073053 68 0 0.0 0.0 0.00 0.00 0.00 52 1023.6
20260902071552 68 0 0.0 3.0 0.00 0.00 0.00 51 1023.5
20260902070052 68 0 0.0 0.0 0.00 0.00 0.00 50 1023.4
20260902064549 68 0 0.0 5.0 0.00 0.00 0.00 48 1023.3
20260902063054 69 0 0.0 7.0 0.00 0.00 0.00 47 1023.2
20260902061600 71 360 2.0 10.0 0.00 0.00 0.00 46 1023.1
20260902060100 71 0 0.0 0.0 0.00 0.00 0.00 46 1022.9
20260902054611 71 0 0.0 7.0 0.00 0.00 0.00 45 1023.1
20260902053105 72 0 2.0 8.0 0.00 0.00 0.00 43 1023.0
20260902051555 73 155 3.0 9.0 0.00 0.00 0.00 41 1023.4
20260902050058 74 202 4.0 11.0 0.00 0.00 0.00 39 1023.5
20260902044554 74 0 1.0 9.0 0.00 0.00 0.00 42 1023.7
20260902043103 73 209 4.0 11.0 0.00 0.00 0.00 43 1023.7
20260902041556 72 165 4.0 12.0 0.00 0.00 0.00 44 1023.9
20260902040058 74 0 3.0 11.0 0.00 0.00 0.00 43 1023.9
20260902034556 72 0 2.0 10.0 0.00 0.00 0.00 45 1024.2
20260902033057 73 222 3.0 10.0 0.00 0.00 0.00 45 1024.4
20260902031556 73 184 6.0 15.0 0.00 0.00 0.00 44 1024.7
20260902030055 73 173 7.0 13.0 0.00 0.00 0.00 45 1024.9
20260902024558 74 196 5.0 14.0 0.00 0.00 0.00 45 1025.1
20260902023108 73 211 0.0 10.0 0.00 0.00 0.00 46 1025.5
20260902021554 73 198 4.0 12.0 0.00 0.00 0.00 47 1026.0
20260902020046 72 0 2.0 12.0 0.00 0.00 0.00 48 1026.2
20260902014555 72 207 5.0 14.0 0.00 0.00 0.00 49 1026.5
20260902013056 71 218 5.0 11.0 0.00 0.00 0.00 50 1026.8
20260902011554 70 267 3.0 14.0 0.00 0.00 0.00 51 1027.2
20260902010049 70 246 4.0 14.0 0.00 0.00 0.00 52 1027.3
20260902004556 69 248 4.0 12.0 0.00 0.00 0.00 52 1027.7
20260902003055 68 260 4.0 11.0 0.00 0.00 0.00 57 1027.8
20260902001602 68 224 3.0 12.0 0.00 0.00 0.00 57 1027.9
20260901234555 65 233 5.0 12.0 0.00 0.00 0.00 62 1028.2
20260901233058 65 265 7.0 13.0 0.00 0.00 0.00 63 1028.3
20260901231602 64 236 4.0 14.0 0.00 0.00 0.00 63 1028.2